Location: Camaret
(48.2753°N, 4.5961°W)
Time: 12:04:58
(UTC+00:00)

X-37B - Pass Details

Date: 24 January 2021
Orbit: 383 x 391 km, 45.0° (Epoch: 27 February)

Event Time Altitude Azimuth Distance (km) Brightness Sun altitude
Rises 18:22:42 0° 252° (WSW) 2,270 6.5 -12.8°
Reaches altitude 10° 18:24:50 10° 245° (WSW) 1,417 4.8 -13.1°
Maximum altitude 18:27:52 43° 172° (S) 563 1.4 -13.6°
Enters shadow 18:29:28 23° 113° (ESE) 885 1.9 -13.9°
